Regional Weather Roundup
Issued by NWS

Home | Current Version | Previous Version | Graphics & Text | Print | Product List | Glossary On
Versions: 1 2 3 4 5 6 7 8 9 10 11 12 13 14 15 16 17 18 19 20 21 22 23 24 25 26 27 28 29 30 31 32 33 34 35 36 37 38 39 40 41 42 43 44 45 46 47 48 49 50
813
ASUS44 KLIX 250005
RWRLA
LOUISIANA WEATHER ROUNDUP
NATIONAL WEATHER SERVICE NEW ORLEANS LA
700 PM CDT THU JUL 24 2014

NOTE: "FAIR" INDICATES FEW OR NO CLOUDS BELOW 12,000 FEET WITH NO
      SIGNIFICANT WEATHER AND/OR OBSTRUCTIONS TO VISIBILITY.
      SKY/WX - SKY CONDITION AND SIGNIFICANT WEATHER.
      TMP - AIR TEMPERATURE.    DP   - DEWPOINT TEMPERATURE.
      RH  - RELATIVE HUMIDITY.  PRES - PRESSURE.
      HX  - HEAT INDEX.         WCI  - WIND CHILL INDEX.

*  THESE STATIONS ARE NOT NWS OR FAA STATIONS AND ARE NOT UNDER
   NWS QUALITY CONTROL.

LAZ040-048-061>063-065-066-069-250100-
SOUTHEAST LOUISIANA

CITY           SKY/WX    TMP DP  RH WIND       PRES   REMARKS
N.O. AUDUBON   NOT AVBL
N.O. INTL ARPT MOSUNNY   86  75  69 S6        29.93S HX  95
6HR MIN TEMP:  84; 6HR MAX TEMP:  89;

N.O. LAKEFRONT SUNNY     86  70  58 W5        29.93S
6HR MIN TEMP:  85; 6HR MAX TEMP:  88;

N.O. DOWNTOWN* FAIR      88  70  55 SW5       29.93S
6HR MIN TEMP:  81; 6HR MAX TEMP:  90; 6HR PCP:  0.02;

SLIDELL        SUNNY     86  74  67 S3        29.92S
6HR MIN TEMP:  77; 6HR MAX TEMP:  89; 6HR PCP:  0.68;

BATON ROUGE    MOSUNNY   80  71  74 N3        29.94S
6HR MIN TEMP:  78; 6HR MAX TEMP:  90; 6HR PCP:  0.03;

BOOTHVILLE     MOSUNNY   83  75  77 SW9       29.94F
6HR MIN TEMP:  83; 6HR MAX TEMP:  85;

BELLE CHASSE   PTSUNNY   84  75  74 W3        29.93S
6HR MIN TEMP:  76; 6HR MAX TEMP:  89; 6HR PCP:  0.42;

BOGALUSA*      FAIR      89  73  60 S3        29.94S HX  97
6HR MIN TEMP:  88; 6HR MAX TEMP:  92;

GALLIANO*      NOT AVBL
NEW ROADS*     FAIR      87  75  67 N5        29.93F HX  96
6HR MIN TEMP:  85; 6HR MAX TEMP:  89;

GONZALES*      FAIR      86  75  68 N3        29.92F HX  95
6HR MIN TEMP:  86; 6HR MAX TEMP:  91;

HAMMOND*       SUNNY     90  66  45 CALM      29.94F
HOUMA*         LGT RAIN  84  72  65 SE5       29.93S
PORT FOURCHON* MOCLDY    84  75  74 NW5G12    29.96S

$$

LAZ041-044-053-054-250100-
SOUTHWEST LOUISIANA

CITY           SKY/WX    TMP DP  RH WIND       PRES   REMARKS
LAKE CHARLES   PTSUNNY   91  71  51 NE8       29.92F HX  97
6HR MIN TEMP:  87; 6HR MAX TEMP:  92;

LAFAYETTE      SUNNY     84  74  71 CALM      29.94S
6HR MIN TEMP:  83; 6HR MAX TEMP:  91;

PATTERSON      MOSUNNY   84  75  74 W8        29.98S
6HR MIN TEMP:  84; 6HR MAX TEMP:  91;

SALT POINT       N/A     87  75  67 VRB3      29.93F HX  96
6HR MIN TEMP:  87; 6HR MAX TEMP:  91;

NEW IBERIA     SUNNY     85  74  69 NW3       29.94F
6HR MIN TEMP:  78; 6HR MAX TEMP:  92; 6HR PCP:  0.07;

CHENAULT AIRPK MOSUNNY   88  75  66 E5        29.94S HX  97

$$

LAZ027-028-250100-
CENTRAL LOUISIANA

CITY           SKY/WX    TMP DP  RH WIND       PRES   REMARKS
FORT POLK      SUNNY     87  71  58 N6        29.94F
6HR MIN TEMP:  84; 6HR MAX TEMP:  89;

ALEXANDRIA INT SUNNY     89  72  56 N7        29.92F HX  96
6HR MIN TEMP:  85; 6HR MAX TEMP:  91;

ALEXANDRIA     SUNNY     90  73  57 N3        29.94F HX  98
6HR MIN TEMP:  88; 6HR MAX TEMP:  94;


$$

LAZ001-002-250100-
NORTHWEST LOUISIANA

CITY           SKY/WX    TMP DP  RH WIND       PRES   REMARKS
SHREVEPORT     MOSUNNY   85  71  63 NW3       29.96F
6HR MIN TEMP:  79; 6HR MAX TEMP:  87;

BARKSDALE AFB  SUNNY     87  71  59 CALM      29.96F
6HR MIN TEMP:  77; 6HR MAX TEMP:  87;

DTN SHREVEPORT SUNNY     86  70  58 N3        29.96F
6HR MIN TEMP:  77; 6HR MAX TEMP:  87;


$$

LAZ014-016-250100-
NORTHEAST LOUISIANA

CITY           SKY/WX    TMP DP  RH WIND       PRES   REMARKS
MONROE         SUNNY     88  72  58 NE7       29.95F
6HR MIN TEMP:  85; 6HR MAX TEMP:  92;

TALLULAH       MOSUNNY   86  74  67 N8        29.94S
6HR MIN TEMP:  85; 6HR MAX TEMP:  91;


$$




USA.gov is the U.S. government's official web portal to all federal, state and local government web resources and services.